International Virtual Aviation Organisation

Russian Federation and Kazakhstan MCD

 

Карточка аэропорта UIBB

Внимание!
Информация на этой странице в стадии наполнения.
Если вы не увидели какой-то информации, или заметили неточность - пожалуйста сообщите нам!
Спасибо!
Команда RU-STAFF
Название аэропортаБратск
Название аэропорта (англ.)Bratsk
Превышение1598 ft. (487.1 m.)
Координаты56°22.236', 101°41.94'
Высота перехода900m
Эшелон переходаQFE>=715mm:FL060; QFE<715=>688:FL070; QFE<688:FL080
Коды ответчика3301-3327
Зона ОрВДИркутск РПИ (UIII)
Данные METARUIBB 060730Z 25006MPS 210V270 9000 -SHSN BKN020CB M03/M07 Q1014 R30/490240 NOSIG RMK QFE717/0957
Проноз погоды (TAF)UIBB 060500Z 0606/0706 24006G15MPS 2900 -SHSN DRSN BKN016CB TEMPO 0606/0624 0700 +SHSN BLSN VV003 BECMG 0700/0702 9999 -SHSN DRSN
NOTAMshow/hide NOTAM
AWOS   TABLE

Информация о ВПП


Диспетчерские позиции

Позывной Наименование органа УВД Частота
UIBB_APPБратск-Подход118.1
UIBB_GNDБратск-Руление121.8



Спутниковое изображение